Weather History for Ft Lauderdale, FL

Change the Weather History Date:

Friday, March 14, 2014

  Actual Average Record
Temperature  
Mean Temperature 68 °F 73 °F  
Max Temperature 75 °F 80 °F 89 °F (1952)
Min Temperature 60 °F 66 °F 35 °F (1932)
Degree Days  
Heating Degree Days 0 0  
Month to date heating degree days 0 7  
Since 1 July heating degree days 80 109  
Cooling Degree Days 3 8  
Month to date cooling degree days 111 108  
Year to date cooling degree days 499 464  
Growing Degree Days 16 (Base 50)    
Moisture  
Dew Point 52 °F    
Average Humidity 59    
Maximum Humidity 72    
Minimum Humidity 46    
Precipitation  
Precipitation 0.00 in 0.11 in 11.45 in (1919)
Month to date precipitation 1.14 1.41  
Year to date precipitation 6.65 8.00  
Snow  
Snow 0.00 in - - ()
Month to date snowfall 0.0  
Since 1 July snowfall 0.0  
Snow Depth 0.00 in    
Sea Level Pressure  
Sea Level Pressure 30.19 in    
Wind  
Wind Speed 12 mph (NE)    
Max Wind Speed 21 mph    
Max Gust Speed 27 mph    
Visibility 10 miles    
Events      
T = Trace of Precipitation, MM = Missing Value Source: NWS Daily Summary

Daily Weather History Graph

Daily Weather History Graph

Search for Another Location

Airport:

Trip Planner

Search our weather history database for the weather conditions in past years. The results will help you decide how hot, cold, wet, or windy it might be!

Date:

Astronomy

Mar. 14, 2014 Rise Set
Actual Time 7:30 AM EDT 7:28 PM EDT
Civil Twilight 7:07 AM EDT 7:51 PM EDT
Nautical Twilight 6:41 AM EDT 8:18 PM EDT
Astronomical Twilight 6:14 AM EDT 8:45 PM EDT
Moon 5:55 PM EDT (3/14) 6:01 AM EDT (3/14)
Length of Visible Light 12h 44m
Length of Day
11h 58m
Waxing Gibbous, 96% of the Moon is Illuminated
Mar 14
Waxing Gibbous
Mar 16
Full
Mar 23
Last Quarter
Mar 30
New
Apr 7
First Quarter

Hourly Weather History & Observations

Time (EDT) Temp. Dew Point Humidity Pressure Visibility Wind Dir Wind Speed Gust Speed Precip Events Conditions
12:53 AM 61.0 °F 46.9 °F 60% 30.17 in 10.0 mi North 6.9 mph - N/A   Clear
1:53 AM 62.1 °F 46.0 °F 56% 30.17 in 10.0 mi NNW 6.9 mph - N/A   Mostly Cloudy
2:53 AM 62.1 °F 48.0 °F 60% 30.16 in 10.0 mi NNW 6.9 mph - N/A   Scattered Clouds
3:53 AM 61.0 °F 48.9 °F 64% 30.14 in 10.0 mi NNW 6.9 mph - N/A   Mostly Cloudy
4:53 AM 61.0 °F 48.9 °F 64% 30.15 in 10.0 mi NNW 6.9 mph - N/A   Scattered Clouds
5:53 AM 61.0 °F 50.0 °F 67% 30.15 in 10.0 mi North 5.8 mph - N/A   Mostly Cloudy
6:53 AM 60.1 °F 51.1 °F 72% 30.17 in 10.0 mi NNW 5.8 mph - N/A   Mostly Cloudy
7:53 AM 60.1 °F 52.0 °F 75% 30.18 in 10.0 mi North 4.6 mph - N/A   Scattered Clouds
8:23 AM 68.0 °F 53.1 °F 59% 30.19 in 10.0 mi ENE 16.1 mph 21.9 mph N/A   Mostly Cloudy
8:53 AM 69.1 °F 52.0 °F 54% 30.20 in 10.0 mi ENE 15.0 mph 19.6 mph N/A   Mostly Cloudy
9:53 AM 71.1 °F 53.1 °F 53% 30.23 in 10.0 mi ENE 15.0 mph 23.0 mph N/A   Partly Cloudy
10:53 AM 71.1 °F 54.0 °F 55% 30.24 in 10.0 mi East 16.1 mph 23.0 mph N/A   Mostly Cloudy
11:53 AM 73.0 °F 53.1 °F 49% 30.25 in 10.0 mi East 17.3 mph - N/A   Mostly Cloudy
12:53 PM 73.9 °F 55.0 °F 52% 30.24 in 10.0 mi ENE 17.3 mph 23.0 mph N/A   Scattered Clouds
1:53 PM 73.0 °F 52.0 °F 48% 30.22 in 10.0 mi East 11.5 mph 23.0 mph N/A   Scattered Clouds
2:53 PM 73.9 °F 54.0 °F 50% 30.20 in 10.0 mi East 13.8 mph 21.9 mph N/A   Mostly Cloudy
3:53 PM 72.0 °F 54.0 °F 53% 30.20 in 10.0 mi ENE 11.5 mph - N/A   Mostly Cloudy
4:53 PM 73.0 °F 53.1 °F 49% 30.19 in 10.0 mi East 15.0 mph - N/A   Scattered Clouds
5:53 PM 73.0 °F 54.0 °F 51% 30.18 in 10.0 mi East 12.7 mph 20.7 mph N/A   Scattered Clouds
6:53 PM 72.0 °F 55.0 °F 55% 30.18 in 10.0 mi East 16.1 mph - N/A   Mostly Cloudy
7:53 PM 71.1 °F 53.1 °F 53% 30.17 in 10.0 mi East 12.7 mph - N/A   Scattered Clouds
8:53 PM 72.0 °F 55.9 °F 57% 30.17 in 10.0 mi East 12.7 mph - N/A   Mostly Cloudy
9:53 PM 72.0 °F 55.0 °F 55% 30.17 in 10.0 mi ESE 13.8 mph - N/A   Mostly Cloudy
10:53 PM 72.0 °F 53.1 °F 51% 30.18 in 10.0 mi East 13.8 mph - N/A   Mostly Cloudy
11:53 PM 71.1 °F 57.9 °F 63% 30.18 in 10.0 mi East 8.1 mph - N/A   Mostly Cloudy